Tiempo cada hora Aberystwyth

Hoy, 20 Octubre, Martes

Tiempo Temperatura Precipitaciones Viento Presión Humedad
00:00 +10°C° 0 mm 8 mps 739 mmHg 85%
01:00 +10°C° 0.8 mm 7 mps 739 mmHg 89%
02:00 +11°C° 0.8 mm 6 mps 738 mmHg 93%
03:00 +12°C° 0.8 mm 5 mps 738 mmHg 97%
04:00 +12°C° 0.2 mm 5 mps 738 mmHg 96%
05:00 +12°C° 0.2 mm 5 mps 738 mmHg 96%
06:00 +11°C° 0.2 mm 6 mps 738 mmHg 96%
07:00 +11°C° 0 mm 6 mps 738 mmHg 94%
08:00 +12°C° 0 mm 7 mps 738 mmHg 92%
09:00 +12°C° 0 mm 8 mps 738 mmHg 91%
10:00 +13°C° 0.2 mm 9 mps 738 mmHg 87%
11:00 +13°C° 0.2 mm 10 mps 738 mmHg 84%
12:00 +14°C° 0.2 mm 11 mps 738 mmHg 81%
13:00 +14°C° 0.2 mm 10 mps 738 mmHg 81%
14:00 +13°C° 0.2 mm 9 mps 738 mmHg 81%
15:00 +13°C° 0.2 mm 9 mps 738 mmHg 82%
16:00 +12°C° 0.1 mm 8 mps 738 mmHg 85%
17:00 +11°C° 0.1 mm 7 mps 738 mmHg 88%
18:00 +10°C° 0.1 mm 6 mps 738 mmHg 91%
19:00 +12°C° 0.7 mm 5 mps 738 mmHg 93%
20:00 +12°C° 0.7 mm 5 mps 739 mmHg 94%
21:00 +12°C° 0.7 mm 5 mps 739 mmHg 96%
22:00 +13°C° 0.7 mm 5 mps 738 mmHg 96%
23:00 +13°C° 0.7 mm 5 mps 738 mmHg 96%

Mañana, 21 Octubre, Miércoles

Tiempo Temperatura Precipitaciones Viento Presión Humedad
00:00 +13°C° 0.7 mm 5 mps 738 mmHg 95%
01:00 +13°C° 0.1 mm 5 mps 738 mmHg 95%
02:00 +12°C° 0.1 mm 5 mps 737 mmHg 95%
03:00 +12°C° 0.1 mm 4 mps 737 mmHg 95%
04:00 +12°C° 0.3 mm 4 mps 736 mmHg 95%
05:00 +12°C° 0.3 mm 4 mps 736 mmHg 95%
06:00 +12°C° 0.3 mm 3 mps 736 mmHg 96%
07:00 +12°C° 0.6 mm 3 mps 736 mmHg 96%
08:00 +12°C° 0.6 mm 3 mps 737 mmHg 96%
09:00 +12°C° 0.6 mm 3 mps 737 mmHg 96%
10:00 +12°C° 0.6 mm 4 mps 737 mmHg 96%
11:00 +12°C° 0.6 mm 4 mps 738 mmHg 96%
12:00 +12°C° 0.6 mm 4 mps 739 mmHg 96%
13:00 +13°C° 0.3 mm 5 mps 739 mmHg 94%
14:00 +13°C° 0.3 mm 5 mps 739 mmHg 93%
15:00 +14°C° 0.3 mm 5 mps 739 mmHg 91%
16:00 +12°C° 0.2 mm 5 mps 740 mmHg 92%
17:00 +10°C° 0.2 mm 5 mps 740 mmHg 93%
18:00 +9°C° 0.2 mm 5 mps 740 mmHg 95%
19:00 +9°C° 0.1 mm 5 mps 741 mmHg 95%
20:00 +9°C° 0.1 mm 5 mps 741 mmHg 95%
21:00 +8°C° 0.1 mm 5 mps 741 mmHg 95%
22:00 +8°C° 0 mm 6 mps 741 mmHg 95%
23:00 +8°C° 0 mm 6 mps 741 mmHg 95%

Pasado mañana, 22 Octubre, Jueves

Tiempo Temperatura Precipitaciones Viento Presión Humedad
00:00 +8°C° 0 mm 6 mps 741 mmHg 94%
01:00 +9°C° 0.1 mm 6 mps 741 mmHg 94%
02:00 +9°C° 0.1 mm 6 mps 741 mmHg 94%
03:00 +9°C° 0.1 mm 7 mps 741 mmHg 93%
04:00 +10°C° 0.4 mm 6 mps 741 mmHg 94%
05:00 +10°C° 0.4 mm 6 mps 741 mmHg 94%
06:00 +10°C° 0.4 mm 6 mps 741 mmHg 94%
07:00 +10°C° 0.8 mm 6 mps 741 mmHg 95%
08:00 +10°C° 0.8 mm 6 mps 741 mmHg 95%
09:00 +11°C° 0.8 mm 6 mps 742 mmHg 96%
10:00 +10°C° 0.1 mm 6 mps 742 mmHg 95%
11:00 +10°C° 0.1 mm 6 mps 743 mmHg 93%
12:00 +10°C° 0.1 mm 6 mps 743 mmHg 92%
13:00 +10°C° 0.1 mm 6 mps 743 mmHg 91%
14:00 +10°C° 0.1 mm 6 mps 744 mmHg 90%
15:00 +9°C° 0.1 mm 5 mps 744 mmHg 90%
16:00 +9°C° 0.1 mm 5 mps 745 mmHg 90%
17:00 +8°C° 0.1 mm 5 mps 745 mmHg 90%
18:00 +7°C° 0.1 mm 5 mps 746 mmHg 91%
19:00 +7°C° 0.1 mm 5 mps 746 mmHg 90%
20:00 +7°C° 0.1 mm 5 mps 746 mmHg 90%
21:00 +8°C° 0.1 mm 6 mps 747 mmHg 90%
22:00 +7°C° 0 mm 6 mps 747 mmHg 89%
23:00 +6°C° 0 mm 5 mps 747 mmHg 88%

23 Octubre, Viernes

Tiempo Temperatura Precipitaciones Viento Presión Humedad
00:00 +6°C° 0 mm 5 mps 748 mmHg 87%
01:00 +6°C° 0 mm 5 mps 747 mmHg 87%
02:00 +6°C° 0 mm 5 mps 747 mmHg 86%
03:00 +5°C° 0 mm 6 mps 747 mmHg 86%
04:00 +7°C° 0 mm 6 mps 747 mmHg 87%
05:00 +6°C° 0 mm 7 mps 746 mmHg 88%
06:00 +8°C° 0 mm 7 mps 746 mmHg 90%
07:00 +9°C° 1.4 mm 7 mps 746 mmHg 92%
08:00 +9°C° 1.4 mm 8 mps 746 mmHg 94%
09:00 +9°C° 1.4 mm 8 mps 746 mmHg 96%
10:00 +9°C° 0.2 mm 8 mps 746 mmHg 90%
11:00 +9°C° 0.2 mm 8 mps 747 mmHg 85%
12:00 +8°C° 0.2 mm 9 mps 748 mmHg 80%
13:00 +9°C° 0.1 mm 8 mps 748 mmHg 79%
14:00 +9°C° 0.1 mm 8 mps 748 mmHg 77%
15:00 +7°C° 0.1 mm 8 mps 749 mmHg 76%
16:00 +7°C° 0 mm 8 mps 749 mmHg 78%
17:00 +6°C° 0 mm 7 mps 750 mmHg 79%
18:00 +6°C° 0 mm 7 mps 750 mmHg 81%
19:00 +5°C° 0 mm 6 mps 750 mmHg 83%
20:00 +5°C° 0 mm 6 mps 751 mmHg 84%
21:00 +5°C° 0 mm 6 mps 751 mmHg 86%
22:00 +5°C° 0.1 mm 6 mps 751 mmHg 87%
23:00 +5°C° 0.1 mm 6 mps 751 mmHg 87%

24 Octubre, Sábado

Tiempo Temperatura Precipitaciones Viento Presión Humedad
00:00 +5°C° 0.1 mm 6 mps 751 mmHg 88%
01:00 +5°C° 0.1 mm 6 mps 751 mmHg 89%
02:00 +6°C° 0.1 mm 7 mps 750 mmHg 90%
03:00 +6°C° 0.1 mm 7 mps 750 mmHg 90%
04:00 +6°C° 0 mm 7 mps 749 mmHg 90%
05:00 +7°C° 0 mm 8 mps 749 mmHg 90%
06:00 +7°C° 0 mm 8 mps 749 mmHg 90%
07:00 +9°C° 0 mm 8 mps 748 mmHg 89%
08:00 +8°C° 0 mm 9 mps 748 mmHg 88%
09:00 +10°C° 0 mm 9 mps 748 mmHg 88%
10:00 +10°C° 0 mm 9 mps 747 mmHg 87%
11:00 +11°C° 0 mm 9 mps 747 mmHg 86%
12:00 +11°C° 0 mm 9 mps 746 mmHg 86%
13:00 +12°C° 0.1 mm 9 mps 746 mmHg 87%
14:00 +12°C° 0.1 mm 9 mps 745 mmHg 89%
15:00 +12°C° 0.1 mm 9 mps 744 mmHg 90%
16:00 +12°C° 0.1 mm 9 mps 743 mmHg 91%
17:00 +12°C° 0.1 mm 10 mps 743 mmHg 91%
18:00 +12°C° 0.1 mm 10 mps 742 mmHg 91%
19:00 +12°C° 0.4 mm 10 mps 742 mmHg 91%
20:00 +12°C° 0.4 mm 11 mps 741 mmHg 92%
21:00 +12°C° 0.4 mm 11 mps 741 mmHg 93%
22:00 +12°C° 1.2 mm 11 mps 740 mmHg 93%
23:00 +12°C° 1.2 mm 11 mps 739 mmHg 93%

25 Octubre, Domingo

Tiempo Temperatura Precipitaciones Viento Presión Humedad
00:00 +12°C° 1.2 mm 11 mps 738 mmHg 93%
01:00 +11°C° 1.5 mm 10 mps 738 mmHg 93%
02:00 +11°C° 1.5 mm 8 mps 738 mmHg 94%
03:00 +10°C° 1.5 mm 7 mps 738 mmHg 94%
04:00 +10°C° 0.8 mm 7 mps 738 mmHg 93%
05:00 +10°C° 0.8 mm 7 mps 739 mmHg 92%
06:00 +9°C° 0.8 mm 7 mps 740 mmHg 91%
07:00 +9°C° 0 mm 6 mps 740 mmHg 90%
08:00 +9°C° 0 mm 6 mps 740 mmHg 88%
09:00 +9°C° 0 mm 5 mps 741 mmHg 87%
10:00 +9°C° 0.1 mm 6 mps 741 mmHg 84%
11:00 +10°C° 0.1 mm 6 mps 741 mmHg 81%
12:00 +10°C° 0.1 mm 7 mps 741 mmHg 78%
13:00 +10°C° 0.2 mm 7 mps 741 mmHg 79%
14:00 +10°C° 0.2 mm 7 mps 741 mmHg 81%
15:00 +10°C° 0.2 mm 7 mps 741 mmHg 82%
16:00 +9°C° 0.1 mm 6 mps 741 mmHg 85%
17:00 +8°C° 0.1 mm 6 mps 741 mmHg 88%
18:00 +7°C° 0.1 mm 5 mps 742 mmHg 90%
19:00 +7°C° 0.1 mm 6 mps 742 mmHg 90%
20:00 +5°C° 0.1 mm 6 mps 742 mmHg 91%
21:00 +5°C° 0.1 mm 7 mps 742 mmHg 91%
22:00 +5°C° 0.2 mm 7 mps 742 mmHg 90%
23:00 +6°C° 0.2 mm 8 mps 742 mmHg 90%

26 Octubre, Lunes

Tiempo Temperatura Precipitaciones Viento Presión Humedad
00:00 +6°C° 0.2 mm 8 mps 742 mmHg 89%
01:00 +6°C° 0.2 mm 7 mps 742 mmHg 89%
02:00 +6°C° 0.2 mm 7 mps 743 mmHg 89%
03:00 +5°C° 0.2 mm 6 mps 743 mmHg 89%
04:00 +5°C° 0.2 mm 6 mps 743 mmHg 89%
05:00 +5°C° 0.2 mm 6 mps 743 mmHg 90%
06:00 +5°C° 0.2 mm 6 mps 743 mmHg 90%
07:00 +6°C° 0.1 mm 7 mps 743 mmHg 88%
08:00 +6°C° 0.1 mm 8 mps 743 mmHg 87%
09:00 +7°C° 0.1 mm 8 mps 743 mmHg 85%
10:00 +7°C° 1.1 mm 9 mps 742 mmHg 88%
11:00 +7°C° 1.1 mm 10 mps 741 mmHg 91%
12:00 +7°C° 1.1 mm 11 mps 740 mmHg 94%
13:00 +7°C° 1.6 mm 11 mps 740 mmHg 90%
14:00 +8°C° 1.6 mm 11 mps 739 mmHg 87%
15:00 +8°C° 1.6 mm 11 mps 739 mmHg 84%
16:00 +8°C° 0.4 mm 11 mps 739 mmHg 84%
17:00 +7°C° 0.4 mm 11 mps 740 mmHg 84%
18:00 +7°C° 0.4 mm 10 mps 740 mmHg 83%
19:00 +7°C° 0.4 mm 10 mps 741 mmHg 84%
20:00 +7°C° 0.4 mm 10 mps 741 mmHg 85%
21:00 +6°C° 0.4 mm 10 mps 742 mmHg 85%
22:00 +6°C° 0.2 mm 9 mps 742 mmHg 86%
23:00 +6°C° 0.2 mm 9 mps 742 mmHg 87%
Mostrar más

Necesitamos Su Consentimiento

Meteoprog y nuestros Proveedores de Servicios pueden almacenar y acceder a sus datos personales como cookies, identificadores de dispositivo u otras tecnologías similares de su dispositivo y procesar dichos datos para personalizar contenido y anuncios, además de ofrecer funciones de redes sociales y analizar el tráfico.

  • Almacenar y/o acceder a información en su dispositivo

    Se puede almacenar o acceder a cookies, identificadores de dispositivo u otra información de su dispositivo para los fines anteriormente indicados.

  • Anuncios y contenido personalizados, medición de anuncios y contenido, percepciones del público, y desarrollo de productos

    Los anuncios y el contenido pueden personalizarse en base a su perfil. Se pueden añadir más datos para personalizar mejor los anuncios y contenidos. Se puede medir el rendimiento de los anuncios y contenidos. Se puede obtener la percepción sobre el público que ha visto los anuncios y contenidos. Dichos datos pueden usarse para desarrollar o mejorar la experiencia del usuario, sistemas y software.

Al hacer clic en ‘Estoy De Acuerdo’ usted permitirá el uso de las cookies, identificadores de dispositivo, balizas web u otras tecnologías similares indicadas. Su configuración puede cambiarse desde el navegador de su dispositivo.

Para ciertos fines, los intereses legítimos pueden ser considerados por encima del consentimiento. Puede leer más sobre ello en nuestra Política de Privacidad y Cookies.